Mount Carmel, IL

7:55 PM CST on November 19, 2019 (GMT -0600)
Mount Carmel Municipal

Weather History for KAJG - October, 2019

Change the Weather History Date:

Monday, October 14, 2019

  Actual Average (KLWV) Record (KLWV)
Temperature  
Mean Temperature 52 °F -  
Max Temperature 69 °F 67 °F 86 °F (2017)
Min Temperature 34 °F 43 °F 32 °F (2002)
Degree Days  
Heating Degree Days 14    
Growing Degree Days 2 (Base 50)    
Moisture  
Dew Point 36 °F    
Average Humidity 64    
Maximum Humidity 97    
Minimum Humidity 19    
Precipitation  
Precipitation 0.00 in - - ()
Sea Level Pressure  
Sea Level Pressure 30.08 in    
Wind  
Wind Speed 6 mph (West)    
Max Wind Speed 9 mph    
Max Gust Speed -    
Visibility 10 miles    
Events      
Averages and records for this station are not official NWS values.
T = Trace of Precipitation, MM = Missing Value Source: NWS Daily Summary

Daily Weather History Graph

Daily Weather History Graph

Search for Another Location

Airport or City:

Astronomy

Oct. 14, 2019 Rise Set
Actual Time 6:58 AM CDT 6:14 PM CDT
Civil Twilight 6:32 AM CDT 6:41 PM CDT
Nautical Twilight 6:01 AM CDT 7:11 PM CDT
Astronomical Twilight 5:30 AM CDT 7:42 PM CDT
Moon 7:04 PM CDT (10/14) 7:30 AM CDT (10/14)
Length of Visible Light 12h 08m
Length of Day
11h 15m
Full, 99% of the Moon is Illuminated
Oct 14
Full
Oct 21
Last Quarter
Oct 27
New
Nov 4
First Quarter
Nov 12
Full

Hourly Weather History & Observations

Time (CDT) Temp. Windchill Dew Point Humidity Pressure Visibility Wind Dir Wind Speed Gust Speed Precip Events Conditions
12:15 AM 46.0 °F - 39.0 °F 76% 30.00 in 10.0 mi North - - N/A   Clear
12:35 AM 48.9 °F - 38.7 °F 68% 30.00 in 10.0 mi North - - N/A   Clear
12:55 AM 47.1 °F - 38.7 °F 72% 30.01 in 10.0 mi North - - N/A   Clear
1:15 AM 45.3 °F - 38.7 °F 78% 30.01 in 10.0 mi North - - N/A   Clear
1:35 AM 44.6 °F 41.4 °F 38.5 °F 79% 30.02 in 10.0 mi WSW 5.8 mph - N/A   Clear
1:55 AM 43.7 °F - 38.7 °F 82% 30.02 in 10.0 mi North - - N/A   Clear
2:15 AM 43.5 °F - 38.5 °F 82% 30.02 in 10.0 mi North - - N/A   Clear
2:35 AM 43.5 °F - 38.8 °F 84% 30.03 in 10.0 mi North - - N/A   Clear
3:15 AM 43.9 °F - 39.7 °F 85% 30.03 in 10.0 mi North - - N/A   Clear
3:35 AM 40.6 °F - 38.3 °F 91% 30.03 in 10.0 mi North - - N/A   Clear
3:55 AM 38.3 °F - 36.7 °F 94% 30.04 in 10.0 mi North - - N/A   Clear
4:15 AM 39.0 °F - 36.9 °F 92% 30.04 in 10.0 mi North - - N/A   Clear
4:35 AM 40.3 °F - 38.3 °F 93% 30.05 in 10.0 mi North - - N/A   Clear
4:55 AM 40.3 °F - 38.5 °F 93% 30.05 in 10.0 mi North - - N/A   Clear
5:15 AM 39.0 °F - 37.8 °F 95% 30.05 in 10.0 mi North - - N/A   Clear
5:35 AM 36.7 °F - 35.8 °F 97% 30.06 in 10.0 mi North - - N/A   Clear
5:55 AM 36.0 °F - 34.7 °F 95% 30.07 in 10.0 mi North - - N/A   Clear
6:15 AM 37.0 °F - 36.3 °F 97% 30.08 in 10.0 mi North - - N/A   Clear
6:35 AM 34.3 °F - 33.4 °F 97% 30.08 in 7.0 mi North - - N/A   Clear
6:55 AM 36.1 °F - 35.2 °F 97% 30.08 in 1.8 mi North - - N/A   Mist
7:15 AM 35.4 °F - 34.7 °F 97% 30.08 in 1.5 mi North - - N/A   Scattered Clouds
7:35 AM 35.2 °F - 34.5 °F 97% 30.09 in 10.0 mi North - - N/A   Scattered Clouds
7:55 AM 37.4 °F - 36.5 °F 97% 30.09 in 10.0 mi North - - N/A   Clear
8:15 AM 41.2 °F - 40.1 °F 96% 30.11 in 10.0 mi North - - N/A   Clear
8:35 AM 44.2 °F - 42.4 °F 93% 30.12 in 10.0 mi North - - N/A   Clear
8:55 AM 47.1 °F - 43.0 °F 86% 30.13 in 10.0 mi North - - N/A   Clear
9:15 AM 49.8 °F - 43.2 °F 78% 30.14 in 10.0 mi North - - N/A   Clear
9:35 AM 52.2 °F - 43.5 °F 72% 30.13 in 10.0 mi North - - N/A   Clear
9:55 AM 54.9 °F - 42.1 °F 62% 30.14 in 10.0 mi North - - N/A   Clear
10:15 AM 56.3 °F - 41.5 °F 58% 30.14 in 10.0 mi North - - N/A   Clear
10:35 AM 58.1 °F - 41.9 °F 55% 30.14 in 10.0 mi North - - N/A   Clear
10:55 AM 61.5 °F - 38.1 °F 42% 30.14 in 10.0 mi North - - N/A   Clear
11:15 AM 62.2 °F - 34.7 °F 36% 30.14 in 10.0 mi WSW 5.8 mph - N/A   Clear
11:35 AM 64.0 °F - 33.1 °F 31% 30.14 in 10.0 mi SW 6.9 mph - N/A   Clear
11:55 AM 65.1 °F - 31.8 °F 29% 30.14 in 10.0 mi NW 6.9 mph - N/A   Clear
12:15 PM 64.9 °F - 31.1 °F 28% 30.13 in 10.0 mi WNW 9.2 mph - N/A   Clear
12:35 PM 64.8 °F - 30.9 °F 28% 30.12 in 10.0 mi North - - N/A   Clear
12:55 PM 67.3 °F - 29.3 °F 24% 30.12 in 10.0 mi WNW 6.9 mph - N/A   Clear
1:15 PM 68.0 °F - 28.0 °F 22% 30.11 in 10.0 mi WSW 6.9 mph - N/A   Clear
1:35 PM 67.8 °F - 28.0 °F 23% 30.10 in 10.0 mi North - - N/A   Clear
1:55 PM 68.2 °F - 25.3 °F 20% 30.09 in 10.0 mi North - - N/A   Clear
2:15 PM 69.1 °F - 25.2 °F 19% 30.09 in 10.0 mi North - - N/A   Clear
2:35 PM 69.1 °F - 26.2 °F 20% 30.09 in 10.0 mi West 6.9 mph - N/A   Clear
2:55 PM 68.9 °F - 25.9 °F 20% 30.08 in 10.0 mi NW 8.1 mph - N/A   Clear
3:15 PM 68.7 °F - 25.3 °F 20% 30.08 in 10.0 mi North - - N/A   Clear
3:35 PM 69.4 °F - 26.6 °F 20% 30.07 in 10.0 mi North - - N/A   Clear
3:55 PM 69.1 °F - 25.9 °F 20% 30.07 in 10.0 mi North - - N/A   Clear
4:15 PM 69.6 °F - 26.1 °F 20% 30.07 in 10.0 mi North - - N/A   Clear
4:35 PM 69.1 °F - 26.2 °F 20% 30.07 in 10.0 mi North - - N/A   Clear
4:55 PM 68.9 °F - 25.9 °F 20% 30.07 in 10.0 mi North - - N/A   Clear
5:15 PM 68.4 °F - 26.4 °F 21% 30.07 in 10.0 mi North - - N/A   Clear
5:35 PM 66.9 °F - 30.0 °F 25% 30.07 in 10.0 mi North - - N/A   Clear
5:55 PM 64.9 °F - 31.6 °F 29% 30.06 in 10.0 mi North - - N/A   Clear
6:15 PM 63.1 °F - 32.0 °F 31% 30.06 in 10.0 mi North - - N/A   Clear
6:35 PM 54.1 °F - 39.2 °F 57% 30.06 in 10.0 mi North - - N/A   Clear
6:55 PM 52.7 °F - 40.3 °F 63% 30.07 in 10.0 mi North - - N/A   Clear
7:15 PM 50.4 °F - 39.4 °F 66% 30.07 in 10.0 mi North - - N/A   Clear
7:35 PM 49.1 °F - 39.4 °F 69% 30.08 in 10.0 mi North - - N/A   Clear
7:55 PM 48.6 °F - 39.9 °F 72% 30.07 in 10.0 mi North - - N/A   Clear
8:15 PM 46.2 °F - 39.9 °F 79% 30.07 in 10.0 mi North - - N/A   Clear
8:35 PM 45.3 °F - 39.7 °F 81% 30.07 in 10.0 mi North - - N/A   Clear
8:55 PM 45.5 °F - 39.2 °F 79% 30.07 in 10.0 mi North - - N/A   Clear
9:15 PM 44.2 °F - 39.4 °F 83% 30.08 in 10.0 mi North - - N/A   Clear
9:35 PM 45.3 °F - 39.2 °F 79% 30.07 in 5.0 mi North - - N/A   Haze
9:55 PM 44.1 °F - 39.6 °F 84% 30.07 in 10.0 mi North - - N/A   Clear
10:15 PM 44.2 °F - 39.6 °F 84% 30.07 in 10.0 mi North - - N/A   Clear
10:35 PM 42.4 °F - 38.5 °F 86% 30.07 in 10.0 mi North - - N/A   Clear
10:55 PM 43.3 °F - 39.2 °F 85% 30.07 in 10.0 mi Calm Calm - N/A   Clear
11:15 PM 43.0 °F - 39.2 °F 86% 30.07 in 10.0 mi Calm Calm - N/A   Clear
11:35 PM 43.5 °F - 39.4 °F 85% 30.07 in 10.0 mi Calm Calm - N/A   Clear
11:55 PM 42.3 °F - 38.5 °F 86% 30.06 in 10.0 mi North - - N/A   Clear